,,Stat6,,Stat2,,Stat8,,Stat9,,Stat10,,Wind1,,Wind1,
time,status,PA1M_AVG,status,PR1M_SUM,status,RH1M_AVG,status,SR1M_AVG,status,TA1M_AVG,status,W1dAve1m,status,W1sAve1m,
2007-04-12, 00:00:00,VALID,917.728,VALID,0,VALID,100,VALID,-0.101885,VALID,20.21,VALID,173,VALID,0.256541,
2007-04-12, 00:01:00,VALID,917.73,VALID,0,VALID,100,VALID,-0.101885,VALID,20.2303,VALID,173,VALID,0.397892,
2007-04-12, 00:02:00,VALID,917.714,VALID,0,VALID,100,VALID,-0.0849042,VALID,20.2362,VALID,167,VALID,0.361192,
2007-04-12, 00:03:00,VALID,917.716,VALID,0,VALID,100,VALID,-0.101885,VALID,20.2332,VALID,162,VALID,0.340701,
2007-04-12, 00:04:00,VALID,917.723,VALID,0,VALID,100,VALID,-0.152827,VALID,20.194,VALID,160,VALID,0.225142,
2007-04-12, 00:05:00,VALID,917.737,VALID,0,VALID,100,VALID,-0.101885,VALID,20.1551,VALID,119,VALID,0.539444,
2007-04-12, 00:06:00,VALID,917.747,VALID,0,VALID,100,VALID,-0.101885,VALID,20.1484,VALID,86,VALID,0.685352,
2007-04-12, 00:07:00,VALID,917.748,VALID,0,VALID,100,VALID,-0.118866,VALID,20.1519,VALID,85,VALID,0.659339,
2007-04-12, 00:08:00,VALID,917.766,VALID,0,VALID,100,VALID,-0.101885,VALID,20.1324,VALID,88,VALID,0.597556,
2007-04-12, 00:09:00,VALID,917.765,VALID,0,VALID,100,VALID,-0.118866,VALID,20.1227,VALID,92,VALID,0.547965,
2007-04-12, 00:10:00,VALID,917.756,VALID,0,VALID,100,VALID,-0.135847,VALID,20.1094,VALID,100,VALID,0.536156,
2007-04-12, 00:11:00,VALID,917.769,VALID,0,VALID,100,VALID,-0.135847,VALID,20.1194,VALID,111,VALID,0.733648,
2007-04-12, 00:12:00,VALID,917.769,VALID,0,VALID,100,VALID,-0.118866,VALID,20.1291,VALID,111,VALID,0.580673,
2007-04-12, 00:13:00,VALID,917.758,VALID,0,VALID,100,VALID,-0.101885,VALID,20.1194,VALID,111,VALID,0.516335,
2007-04-12, 00:14:00,VALID,917.752,VALID,0,VALID,100,VALID,-0.118866,VALID,20.1092,VALID,111,VALID,0.361374,
2007-04-12, 00:15:00,VALID,917.733,VALID,0,VALID,100,VALID,-0.118866,VALID,20.1129,VALID,111,VALID,0.314215,
2007-04-12, 00:16:00,VALID,917.729,VALID,0,VALID,100,VALID,-0.101885,VALID,20.1227,VALID,111,VALID,0.172266,
2007-04-12, 00:17:00,VALID,917.726,VALID,0,VALID,100,VALID,-0.101885,VALID,20.1129,VALID,111,VALID,0.00674716,
2007-04-12, 00:18:00,VALID,917.713,VALID,0,VALID,100,VALID,-0.118866,VALID,20.1097,VALID,111,VALID,0.228161,
2007-04-12, 00:19:00,VALID,917.703,VALID,0,VALID,100,VALID,-0.101885,VALID,20.1097,VALID,111,VALID,0.0441497,
2007-04-12, 00:20:00,VALID,917.689,VALID,0,VALID,100,VALID,-0.118866,VALID,20.1032,VALID,111,VALID,0.00213068,
2007-04-12, 00:21:00,VALID,917.664,VALID,0,VALID,100,VALID,-0.118866,VALID,20.1097,VALID,111,VALID,0.115039,
2007-04-12, 00:22:00,VALID,917.649,VALID,0,VALID,100,VALID,-0.118866,VALID,20.1064,VALID,111,VALID,0.405342,
2007-04-12, 00:23:00,VALID,917.646,VALID,0,VALID,100,VALID,-0.0849042,VALID,20.0899,VALID,111,VALID,0.475419,
2007-04-12, 00:24:00,VALID,917.625,VALID,0,VALID,100,VALID,-0.101885,VALID,20.077,VALID,111,VALID,0.545015,
2007-04-12, 00:25:00,VALID,917.622,VALID,0,VALID,100,VALID,-0.101885,VALID,20.0637,VALID,111,VALID,0.591211,
2007-04-12, 00:26:00,VALID,917.61,VALID,0,VALID,100,VALID,-0.135847,VALID,20.0672,VALID,111,VALID,0.374653,
2007-04-12, 00:27:00,VALID,917.623,VALID,0,VALID,100,VALID,-0.101885,VALID,20.0672,VALID,111,VALID,0.474144,
2007-04-12, 00:28:00,VALID,917.616,VALID,0,VALID,100,VALID,-0.0849042,VALID,20.0767,VALID,111,VALID,0.260671,
2007-04-12, 00:29:00,VALID,917.616,VALID,0,VALID,100,VALID,-0.0509425,VALID,20.0652,VALID,111,VALID,0.467685,
2007-04-12, 00:30:00,VALID,917.604,VALID,0,VALID,100,VALID,-0.0169808,VALID,20.0752,VALID,111,VALID,0.573401,
2007-04-12, 00:31:00,VALID,917.585,VALID,0,VALID,100,VALID,0.0169808,VALID,20.0655,VALID,110,VALID,0.476563,
2007-04-12, 00:32:00,VALID,917.584,VALID,0,VALID,100,VALID,-0.0169808,VALID,20.0587,VALID,108,VALID,0.601749,
2007-04-12, 00:33:00,VALID,917.579,VALID,0,VALID,100,VALID,-0.0169808,VALID,20.0657,VALID,98,VALID,0.597222,
2007-04-12, 00:34:00,VALID,917.562,VALID,0,VALID,100,VALID,-0.0339617,VALID,20.0627,VALID,98,VALID,0.728795,
2007-04-12, 00:35:00,VALID,917.562,VALID,0,VALID,100,VALID,0,VALID,20.0525,VALID,105,VALID,0.615589,
2007-04-12, 00:36:00,VALID,917.576,VALID,0,VALID,100,VALID,0,VALID,20.056,VALID,101,VALID,0.610863,
2007-04-12, 00:37:00,VALID,917.561,VALID,0,VALID,100,VALID,0,VALID,20.0782,VALID,101,VALID,0.383681,
2007-04-12, 00:38:00,VALID,917.56,VALID,0,VALID,100,VALID,-0.0169808,VALID,20.0684,VALID,101,VALID,0.31715,
2007-04-12, 00:39:00,VALID,917.538,VALID,0,VALID,100,VALID,0,VALID,20.066,VALID,101,VALID,0.454397,
2007-04-12, 00:40:00,VALID,917.524,VALID,0,VALID,100,VALID,-0.0339617,VALID,20.0562,VALID,101,VALID,0.538007,
2007-04-12, 00:41:00,VALID,917.515,VALID,0,VALID,100,VALID,0,VALID,20.0465,VALID,113,VALID,0.746185,
2007-04-12, 00:42:00,VALID,917.498,VALID,0,VALID,100,VALID,-0.0169808,VALID,20.0403,VALID,121,VALID,0.848586,
2007-04-12, 00:43:00,VALID,917.495,VALID,0,VALID,100,VALID,-0.0169808,VALID,20.0303,VALID,134,VALID,0.789595,
2007-04-12, 00:44:00,VALID,917.488,VALID,0,VALID,100,VALID,-0.0169808,VALID,20.0403,VALID,134,VALID,0.779535,
2007-04-12, 00:45:00,VALID,917.477,VALID,0,VALID,100,VALID,0,VALID,20.0335,VALID,134,VALID,0.631904,
2007-04-12, 00:46:00,VALID,917.47,VALID,0,VALID,100,VALID,-0.0339617,VALID,20.0397,VALID,134,VALID,0.84976,
2007-04-12, 00:47:00,VALID,917.463,VALID,0,VALID,100,VALID,0,VALID,20.05,VALID,136,VALID,0.836648,
2007-04-12, 00:48:00,VALID,917.464,VALID,0,VALID,100,VALID,0.0169808,VALID,20.0525,VALID,152,VALID,0.742578,
2007-04-12, 00:49:00,VALID,917.455,VALID,0,VALID,100,VALID,0,VALID,20.059,VALID,144,VALID,0.801781,
2007-04-12, 00:50:00,VALID,917.454,VALID,0,VALID,100,VALID,0,VALID,20.0622,VALID,144,VALID,0.604567,
2007-04-12, 00:51:00,VALID,917.438,VALID,0,VALID,100,VALID,-0.0169808,VALID,20.0592,VALID,142,VALID,0.675876,
2007-04-12, 00:52:00,VALID,917.431,VALID,0,VALID,100,VALID,0,VALID,20.0725,VALID,145,VALID,0.516197,
2007-04-12, 00:53:00,VALID,917.418,VALID,0,VALID,100,VALID,-0.0339617,VALID,20.0722,VALID,138,VALID,0.531631,
2007-04-12, 00:54:00,VALID,917.399,VALID,0,VALID,100,VALID,0,VALID,20.0614,VALID,139,VALID,0.861192,
2007-04-12, 00:55:00,VALID,917.402,VALID,0,VALID,100,VALID,0,VALID,20.0849,VALID,140,VALID,1.23003,
2007-04-12, 00:56:00,VALID,917.387,VALID,0,VALID,100,VALID,0.0169808,VALID,20.0947,VALID,138,VALID,1.05984,
2007-04-12, 00:57:00,VALID,917.373,VALID,0,VALID,100,VALID,0,VALID,20.0914,VALID,149,VALID,0.980469,
2007-04-12, 00:58:00,VALID,917.369,VALID,0,VALID,100,VALID,-0.0339617,VALID,20.0944,VALID,149,VALID,0.804869,
2007-04-12, 00:59:00,VALID,917.348,VALID,0,VALID,100,VALID,-0.0849042,VALID,20.1052,VALID,152,VALID,0.554865,
2007-04-12, 01:00:00,VALID,917.358,VALID,0,VALID,100,VALID,-0.101885,VALID,20.1049,VALID,151,VALID,0.763719,
2007-04-12, 01:01:00,VALID,917.363,VALID,0,VALID,100,VALID,-0.0679233,VALID,20.1052,VALID,148,VALID,0.615234,
2007-04-12, 01:02:00,VALID,917.353,VALID,0,VALID,100,VALID,-0.0849042,VALID,20.0984,VALID,147,VALID,0.602983,
2007-04-12, 01:03:00,VALID,917.354,VALID,0,VALID,100,VALID,-0.101885,VALID,20.1084,VALID,148,VALID,0.623884,
2007-04-12, 01:04:00,VALID,917.349,VALID,0,VALID,100,VALID,-0.118866,VALID,20.0987,VALID,165,VALID,0.565168,
2007-04-12, 01:05:00,VALID,917.347,VALID,0,VALID,100,VALID,-0.0849042,VALID,20.0987,VALID,172,VALID,0.460582,
2007-04-12, 01:06:00,VALID,917.333,VALID,0,VALID,100,VALID,-0.0849042,VALID,20.0987,VALID,158,VALID,0.92721,
2007-04-12, 01:07:00,VALID,917.323,VALID,0,VALID,100,VALID,-0.0679233,VALID,20.0887,VALID,159,VALID,0.707667,
2007-04-12, 01:08:00,VALID,917.299,VALID,0,VALID,100,VALID,-0.101885,VALID,20.0927,VALID,152,VALID,0.906068,
2007-04-12, 01:09:00,VALID,917.295,VALID,0,VALID,100,VALID,-0.101885,VALID,20.0859,VALID,153,VALID,0.837358,
2007-04-12, 01:10:00,VALID,917.291,VALID,0,VALID,100,VALID,-0.101885,VALID,20.0932,VALID,164,VALID,0.893895,
2007-04-12, 01:11:00,VALID,917.275,VALID,0,VALID,100,VALID,-0.101885,VALID,20.0897,VALID,161,VALID,0.863032,
2007-04-12, 01:12:00,VALID,917.266,VALID,0,VALID,100,VALID,-0.101885,VALID,20.0725,VALID,159,VALID,0.757813,
2007-04-12, 01:13:00,VALID,917.25,VALID,0,VALID,100,VALID,-0.0849042,VALID,20.0727,VALID,149,VALID,0.983173,
2007-04-12, 01:14:00,VALID,917.256,VALID,0,VALID,100,VALID,-0.101885,VALID,20.0695,VALID,162,VALID,0.926711,
2007-04-12, 01:15:00,VALID,917.25,VALID,0,VALID,100,VALID,-0.0849042,VALID,20.0692,VALID,154,VALID,0.755766,
2007-04-12, 01:16:00,VALID,917.244,VALID,0,VALID,100,VALID,-0.0679233,VALID,20.0727,VALID,145,VALID,0.750178,
2007-04-12, 01:17:00,VALID,917.235,VALID,0,VALID,100,VALID,-0.0679233,VALID,20.0794,VALID,138,VALID,0.820126,
2007-04-12, 01:18:00,VALID,917.228,VALID,0,VALID,100,VALID,-0.0679233,VALID,20.0792,VALID,135,VALID,0.848785,
2007-04-12, 01:19:00,VALID,917.231,VALID,0,VALID,100,VALID,-0.101885,VALID,20.0789,VALID,130,VALID,1.04524,
2007-04-12, 01:20:00,VALID,917.24,VALID,0,VALID,100,VALID,-0.0849042,VALID,20.0922,VALID,128,VALID,0.799733,
2007-04-12, 01:21:00,VALID,917.237,VALID,0,VALID,100,VALID,-0.0509425,VALID,20.0989,VALID,137,VALID,0.638021,
2007-04-12, 01:22:00,VALID,917.239,VALID,0,VALID,100,VALID,-0.0339617,VALID,20.0887,VALID,137,VALID,0.670277,
2007-04-12, 01:23:00,VALID,917.244,VALID,0,VALID,100,VALID,-0.0509425,VALID,20.0987,VALID,139,VALID,0.545277,
2007-04-12, 01:24:00,VALID,917.247,VALID,0,VALID,100,VALID,-0.101885,VALID,20.0954,VALID,150,VALID,0.834985,
2007-04-12, 01:25:00,VALID,917.243,VALID,0,VALID,100,VALID,-0.0679233,VALID,20.0889,VALID,153,VALID,0.735491,
2007-04-12, 01:26:00,VALID,917.244,VALID,0,VALID,100,VALID,-0.0849042,VALID,20.0854,VALID,153,VALID,0.616071,
2007-04-12, 01:27:00,VALID,917.24,VALID,0,VALID,100,VALID,-0.0509425,VALID,20.0952,VALID,150,VALID,0.712271,
2007-04-12, 01:28:00,VALID,917.221,VALID,0,VALID,100,VALID,-0.0849042,VALID,20.0952,VALID,152,VALID,0.834223,
2007-04-12, 01:29:00,VALID,917.224,VALID,0,VALID,100,VALID,-0.0509425,VALID,20.1114,VALID,156,VALID,0.765625,
2007-04-12, 01:30:00,VALID,917.212,VALID,0,VALID,100,VALID,-0.0849042,VALID,20.1081,VALID,162,VALID,0.709821,
2007-04-12, 01:31:00,VALID,917.202,VALID,0,VALID,100,VALID,-0.0509425,VALID,20.1211,VALID,163,VALID,0.872337,
2007-04-12, 01:32:00,VALID,917.196,VALID,0,VALID,100,VALID,-0.0849042,VALID,20.1244,VALID,168,VALID,0.828316,
2007-04-12, 01:33:00,VALID,917.205,VALID,0,VALID,100,VALID,-0.0509425,VALID,20.1141,VALID,168,VALID,0.998641,
2007-04-12, 01:34:00,VALID,917.205,VALID,0,VALID,100,VALID,-0.0509425,VALID,20.1276,VALID,169,VALID,1.13047,
2007-04-12, 01:35:00,VALID,917.206,VALID,0,VALID,100,VALID,-0.0849042,VALID,20.1276,VALID,163,VALID,0.942383,
2007-04-12, 01:36:00,VALID,917.197,VALID,0,VALID,100,VALID,-0.0849042,VALID,20.1211,VALID,157,VALID,1.51363,
2007-04-12, 01:37:00,VALID,917.192,VALID,0,VALID,100,VALID,-0.0509425,VALID,20.1306,VALID,154,VALID,1.10974,
2007-04-12, 01:38:00,VALID,917.18,VALID,0,VALID,100,VALID,-0.0509425,VALID,20.1374,VALID,157,VALID,1.4122,
2007-04-12, 01:39:00,VALID,917.177,VALID,0,VALID,100,VALID,-0.0679233,VALID,20.1374,VALID,142,VALID,0.881925,
2007-04-12, 01:40:00,VALID,917.167,VALID,0,VALID,100,VALID,-0.0849042,VALID,20.1444,VALID,160,VALID,0.829723,
2007-04-12, 01:41:00,VALID,917.154,VALID,0,VALID,100,VALID,-0.0679233,VALID,20.1341,VALID,155,VALID,1.11569,
2007-04-12, 01:42:00,VALID,917.147,VALID,0,VALID,100,VALID,-0.0679233,VALID,20.1344,VALID,156,VALID,1.23189,
2007-04-12, 01:43:00,VALID,917.148,VALID,0,VALID,100,VALID,-0.118866,VALID,20.1179,VALID,158,VALID,1.27012,
2007-04-12, 01:44:00,VALID,917.139,VALID,0,VALID,100,VALID,-0.0509425,VALID,20.1344,VALID,158,VALID,1.11896,
2007-04-12, 01:45:00,VALID,917.125,VALID,0,VALID,100,VALID,-0.0679233,VALID,20.1311,VALID,161,VALID,1.05412,
2007-04-12, 01:46:00,VALID,917.097,VALID,0,VALID,100,VALID,-0.0849042,VALID,20.1276,VALID,164,VALID,1.01635,
2007-04-12, 01:47:00,VALID,917.076,VALID,0,VALID,100,VALID,-0.0849042,VALID,20.1244,VALID,166,VALID,0.925781,
2007-04-12, 01:48:00,VALID,917.044,VALID,0,VALID,100,VALID,-0.0849042,VALID,20.1276,VALID,168,VALID,0.985677,
2007-04-12, 01:49:00,VALID,917.026,VALID,0,VALID,100,VALID,-0.101885,VALID,20.1279,VALID,165,VALID,0.970385,
2007-04-12, 01:50:00,VALID,917.01,VALID,0,VALID,100,VALID,-0.0679233,VALID,20.1211,VALID,166,VALID,0.954102,
2007-04-12, 01:51:00,VALID,916.979,VALID,0,VALID,100,VALID,-0.0339617,VALID,20.1274,VALID,168,VALID,1.01687,
2007-04-12, 01:52:00,VALID,916.975,VALID,0,VALID,100,VALID,-0.0679233,VALID,20.1309,VALID,166,VALID,0.915838,
2007-04-12, 01:53:00,VALID,916.955,VALID,0,VALID,100,VALID,-0.0679233,VALID,20.1344,VALID,174,VALID,0.851372,
2007-04-12, 01:54:00,VALID,916.941,VALID,0,VALID,100,VALID,-0.0849042,VALID,20.1374,VALID,167,VALID,0.888889,
2007-04-12, 01:55:00,VALID,916.927,VALID,0,VALID,100,VALID,-0.0339617,VALID,20.1468,VALID,163,VALID,0.925195,
2007-04-12, 01:56:00,VALID,916.91,VALID,0,VALID,100,VALID,-0.0339617,VALID,20.1536,VALID,160,VALID,0.933771,
2007-04-12, 01:57:00,VALID,916.909,VALID,0,VALID,100,VALID,-0.0509425,VALID,20.1701,VALID,169,VALID,0.657227,
2007-04-12, 01:58:00,VALID,916.897,VALID,0,VALID,100,VALID,-0.0509425,VALID,20.1601,VALID,160,VALID,0.838356,
2007-04-12, 01:59:00,VALID,916.899,VALID,0,VALID,100,VALID,0,VALID,20.1631,VALID,158,VALID,0.535866,
2007-04-12, 02:00:00,VALID,916.889,VALID,0,VALID,100,VALID,-0.0169808,VALID,20.1668,VALID,142,VALID,0.847222,
2007-04-12, 02:01:00,VALID,916.894,VALID,0,VALID,100,VALID,-0.0169808,VALID,20.1506,VALID,134,VALID,0.788553,
2007-04-12, 02:02:00,VALID,916.89,VALID,0,VALID,100,VALID,0,VALID,20.1376,VALID,124,VALID,0.653392,
2007-04-12, 02:03:00,VALID,916.877,VALID,0,VALID,100,VALID,-0.0169808,VALID,20.1341,VALID,115,VALID,0.398438,
2007-04-12, 02:04:00,VALID,916.874,VALID,0,VALID,100,VALID,0,VALID,20.1438,VALID,97,VALID,0.627323,
2007-04-12, 02:05:00,VALID,916.872,VALID,0,VALID,100,VALID,-0.0169808,VALID,20.1471,VALID,79,VALID,0.779762,
2007-04-12, 02:06:00,VALID,916.861,VALID,0,VALID,100,VALID,-0.0339617,VALID,20.1374,VALID,75,VALID,0.778533,
2007-04-12, 02:07:00,VALID,916.862,VALID,0,VALID,100,VALID,-0.0169808,VALID,20.1149,VALID,66,VALID,0.72904,
2007-04-12, 02:08:00,VALID,916.846,VALID,0,VALID,100,VALID,0,VALID,20.0889,VALID,68,VALID,0.73274,
2007-04-12, 02:09:00,VALID,916.846,VALID,0,VALID,100,VALID,0,VALID,20.053,VALID,72,VALID,0.759909,
2007-04-12, 02:10:00,VALID,916.824,VALID,0,VALID,100,VALID,-0.0169808,VALID,20.0368,VALID,68,VALID,0.716493,
2007-04-12, 02:11:00,VALID,916.804,VALID,0,VALID,100,VALID,0,VALID,20.0173,VALID,91,VALID,0.653201,
2007-04-12, 02:12:00,VALID,916.799,VALID,0,VALID,100,VALID,0,VALID,20.0076,VALID,69,VALID,0.567835,
2007-04-12, 02:13:00,VALID,916.788,VALID,0,VALID,100,VALID,-0.0169808,VALID,19.9883,VALID,69,VALID,0.415234,
2007-04-12, 02:14:00,VALID,916.774,VALID,0,VALID,100,VALID,-0.0169808,VALID,19.9888,VALID,78,VALID,0.363281,
2007-04-12, 02:15:00,VALID,916.753,VALID,0,VALID,100,VALID,-0.0169808,VALID,19.9689,VALID,107,VALID,0.656783,
2007-04-12, 02:16:00,VALID,916.753,VALID,0,VALID,100,VALID,-0.0339617,VALID,19.9751,VALID,119,VALID,1.04818,
2007-04-12, 02:17:00,VALID,916.741,VALID,0,VALID,100,VALID,0.0169808,VALID,19.9811,VALID,120,VALID,0.845846,
2007-04-12, 02:18:00,VALID,916.745,VALID,0,VALID,100,VALID,0,VALID,19.9789,VALID,120,VALID,0.669017,
2007-04-12, 02:19:00,VALID,916.733,VALID,0,VALID,100,VALID,-0.0339617,VALID,19.9691,VALID,129,VALID,0.894626,
2007-04-12, 02:20:00,VALID,916.729,VALID,0,VALID,100,VALID,-0.0169808,VALID,19.9654,VALID,144,VALID,1.08381,
2007-04-12, 02:21:00,VALID,916.716,VALID,0,VALID,100,VALID,-0.0339617,VALID,19.9589,VALID,137,VALID,0.712936,
2007-04-12, 02:22:00,VALID,916.708,VALID,0,VALID,100,VALID,-0.0169808,VALID,19.9624,VALID,143,VALID,0.898983,
2007-04-12, 02:23:00,VALID,916.683,VALID,0,VALID,100,VALID,0,VALID,19.9654,VALID,146,VALID,0.778832,
2007-04-12, 02:24:00,VALID,916.669,VALID,0,VALID,100,VALID,0,VALID,19.9589,VALID,147,VALID,0.443537,
2007-04-12, 02:25:00,VALID,916.639,VALID,0,VALID,100,VALID,0,VALID,19.9524,VALID,148,VALID,0.695131,
2007-04-12, 02:26:00,VALID,916.613,VALID,0,VALID,100,VALID,-0.0169808,VALID,19.9491,VALID,155,VALID,0.5625,
2007-04-12, 02:27:00,VALID,916.598,VALID,0,VALID,100,VALID,-0.0509425,VALID,19.9496,VALID,141,VALID,0.904848,
2007-04-12, 02:28:00,VALID,916.595,VALID,0,VALID,100,VALID,-0.0509425,VALID,19.9364,VALID,156,VALID,0.983984,
2007-04-12, 02:29:00,VALID,916.579,VALID,0,VALID,100,VALID,-0.0339617,VALID,19.9234,VALID,139,VALID,0.820694,
2007-04-12, 02:30:00,VALID,916.574,VALID,0,VALID,100,VALID,-0.0509425,VALID,19.9329,VALID,136,VALID,1.07558,
2007-04-12, 02:31:00,VALID,916.57,VALID,0,VALID,100,VALID,-0.0509425,VALID,19.9297,VALID,136,VALID,1.13129,
2007-04-12, 02:32:00,VALID,916.558,VALID,0,VALID,100,VALID,-0.0169808,VALID,19.9297,VALID,137,VALID,1.14208,
2007-04-12, 02:33:00,VALID,916.551,VALID,0,VALID,100,VALID,0,VALID,19.9232,VALID,143,VALID,1.06651,
2007-04-12, 02:34:00,VALID,916.539,VALID,0,VALID,100,VALID,-0.0169808,VALID,19.9229,VALID,144,VALID,0.999112,
2007-04-12, 02:35:00,VALID,916.539,VALID,0,VALID,100,VALID,0,VALID,19.9297,VALID,141,VALID,1.03574,
2007-04-12, 02:36:00,VALID,916.526,VALID,0,VALID,100,VALID,-0.0169808,VALID,19.9329,VALID,130,VALID,0.851381,
2007-04-12, 02:37:00,VALID,916.513,VALID,0,VALID,100,VALID,-0.0509425,VALID,19.9297,VALID,135,VALID,0.560082,
2007-04-12, 02:38:00,VALID,916.504,VALID,0,VALID,100,VALID,-0.0339617,VALID,19.9234,VALID,138,VALID,0.743676,
2007-04-12, 02:39:00,VALID,916.493,VALID,0,VALID,100,VALID,0,VALID,19.9035,VALID,138,VALID,0.841388,
2007-04-12, 02:40:00,VALID,916.47,VALID,0,VALID,100,VALID,-0.0339617,VALID,19.9037,VALID,136,VALID,0.774009,
2007-04-12, 02:41:00,VALID,916.456,VALID,0,VALID,100,VALID,-0.0169808,VALID,19.904,VALID,137,VALID,1.00267,
2007-04-12, 02:42:00,VALID,916.427,VALID,0,VALID,100,VALID,-0.0169808,VALID,19.901,VALID,144,VALID,1.14653,
2007-04-12, 02:43:00,VALID,916.417,VALID,0,VALID,100,VALID,0,VALID,19.8872,VALID,142,VALID,1.30506,
2007-04-12, 02:44:00,VALID,916.381,VALID,0,VALID,100,VALID,0,VALID,19.903,VALID,135,VALID,1.12555,
2007-04-12, 02:45:00,VALID,916.373,VALID,0,VALID,100,VALID,0.0169808,VALID,19.8865,VALID,136,VALID,1.24538,
2007-04-12, 02:46:00,VALID,916.349,VALID,0,VALID,100,VALID,0,VALID,19.8673,VALID,135,VALID,0.978924,
2007-04-12, 02:47:00,VALID,916.334,VALID,0,VALID,100,VALID,0,VALID,19.8733,VALID,146,VALID,1.08537,
2007-04-12, 02:48:00,VALID,916.321,VALID,0,VALID,100,VALID,0.0169808,VALID,19.8768,VALID,146,VALID,1.14004,
2007-04-12, 02:49:00,VALID,916.294,VALID,0,VALID,100,VALID,-0.0169808,VALID,19.8705,VALID,138,VALID,0.929501,
2007-04-12, 02:50:00,VALID,916.281,VALID,0,VALID,100,VALID,-0.0169808,VALID,19.864,VALID,149,VALID,0.943638,
2007-04-12, 02:51:00,VALID,916.259,VALID,0,VALID,100,VALID,0,VALID,19.8508,VALID,156,VALID,0.98383,
2007-04-12, 02:52:00,VALID,916.252,VALID,0,VALID,100,VALID,0,VALID,19.8476,VALID,151,VALID,0.974432,
2007-04-12, 02:53:00,VALID,916.219,VALID,0,VALID,100,VALID,0,VALID,19.8246,VALID,150,VALID,0.830357,
2007-04-12, 02:54:00,VALID,916.193,VALID,0,VALID,100,VALID,0.0169808,VALID,19.8186,VALID,149,VALID,0.82049,
2007-04-12, 02:55:00,VALID,916.157,VALID,0,VALID,100,VALID,0.0169808,VALID,19.7954,VALID,151,VALID,0.956555,
2007-04-12, 02:56:00,VALID,916.13,VALID,0,VALID,100,VALID,0.0169808,VALID,19.7959,VALID,146,VALID,1.15486,
2007-04-12, 02:57:00,VALID,916.11,VALID,0,VALID,100,VALID,-0.0169808,VALID,19.7859,VALID,159,VALID,0.785243,
2007-04-12, 02:58:00,VALID,916.089,VALID,0,VALID,100,VALID,0.0339617,VALID,19.7797,VALID,157,VALID,1.02148,
2007-04-12, 02:59:00,VALID,916.066,VALID,0,VALID,100,VALID,-0.0169808,VALID,19.7664,VALID,154,VALID,0.749256,
2007-04-12, 03:00:00,VALID,916.049,VALID,0,VALID,100,VALID,-0.0169808,VALID,19.7669,VALID,143,VALID,0.848656,
2007-04-12, 03:01:00,VALID,916.036,VALID,0,VALID,100,VALID,0,VALID,19.7475,VALID,144,VALID,1.10738,
2007-04-12, 03:02:00,VALID,916.018,VALID,0,VALID,100,VALID,0,VALID,19.7305,VALID,148,VALID,0.821221,
2007-04-12, 03:03:00,VALID,916.009,VALID,0,VALID,100,VALID,-0.0169808,VALID,19.7315,VALID,137,VALID,1.47326,
2007-04-12, 03:04:00,VALID,916.009,VALID,0,VALID,100,VALID,-0.0339617,VALID,19.6953,VALID,141,VALID,1.58975,
2007-04-12, 03:05:00,VALID,916,VALID,0,VALID,100,VALID,-0.0169808,VALID,19.6958,VALID,146,VALID,1.2818,
2007-04-12, 03:06:00,VALID,915.99,VALID,0,VALID,100,VALID,0.0169808,VALID,19.6823,VALID,149,VALID,1.32565,
2007-04-12, 03:07:00,VALID,915.978,VALID,0,VALID,100,VALID,-0.0169808,VALID,19.6659,VALID,153,VALID,1.42049,
2007-04-12, 03:08:00,VALID,915.983,VALID,0,VALID,100,VALID,0.0169808,VALID,19.6526,VALID,150,VALID,1.47228,
2007-04-12, 03:09:00,VALID,915.967,VALID,0,VALID,100,VALID,-0.0339617,VALID,19.6501,VALID,152,VALID,1.28001,
2007-04-12, 03:10:00,VALID,915.962,VALID,0,VALID,100,VALID,0,VALID,19.614,VALID,146,VALID,1.57533,
2007-04-12, 03:11:00,VALID,915.943,VALID,0,VALID,100,VALID,0.0169808,VALID,19.5972,VALID,150,VALID,1.13951,
2007-04-12, 03:12:00,VALID,915.933,VALID,0,VALID,100,VALID,0,VALID,19.581,VALID,152,VALID,1.15104,
2007-04-12, 03:13:00,VALID,915.92,VALID,0,VALID,100,VALID,-0.0169808,VALID,19.5755,VALID,155,VALID,1.22994,
2007-04-12, 03:14:00,VALID,915.908,VALID,0,VALID,100,VALID,-0.0339617,VALID,19.5688,VALID,154,VALID,1.33743,
2007-04-12, 03:15:00,VALID,915.909,VALID,0,VALID,100,VALID,0,VALID,19.5755,VALID,163,VALID,1.09394,
2007-04-12, 03:16:00,VALID,915.891,VALID,0,VALID,100,VALID,0.0169808,VALID,19.5586,VALID,163,VALID,0.891352,
2007-04-12, 03:17:00,VALID,915.882,VALID,0,VALID,100,VALID,0.0169808,VALID,19.5556,VALID,162,VALID,0.975142,
2007-04-12, 03:18:00,VALID,915.859,VALID,0,VALID,100,VALID,0,VALID,19.572,VALID,159,VALID,1.40334,
2007-04-12, 03:19:00,VALID,915.845,VALID,0,VALID,100,VALID,0.0169808,VALID,19.575,VALID,165,VALID,1.11756,
2007-04-12, 03:20:00,VALID,915.839,VALID,0,VALID,100,VALID,0.0169808,VALID,19.585,VALID,160,VALID,0.911914,
2007-04-12, 03:21:00,VALID,915.808,VALID,0,VALID,100,VALID,0,VALID,19.5882,VALID,153,VALID,0.695117,
2007-04-12, 03:22:00,VALID,915.816,VALID,0,VALID,100,VALID,0,VALID,19.5715,VALID,159,VALID,0.420099,
2007-04-12, 03:23:00,VALID,915.788,VALID,0,VALID,100,VALID,0,VALID,19.5561,VALID,157,VALID,0.689236,
2007-04-12, 03:24:00,VALID,915.784,VALID,0,VALID,100,VALID,0.0169808,VALID,19.5391,VALID,166,VALID,0.757241,
2007-04-12, 03:25:00,VALID,915.756,VALID,0,VALID,100,VALID,0.0339617,VALID,19.5358,VALID,158,VALID,0.464472,
2007-04-12, 03:26:00,VALID,915.747,VALID,0,VALID,100,VALID,0,VALID,19.5261,VALID,155,VALID,0.353743,
2007-04-12, 03:27:00,VALID,915.711,VALID,0,VALID,100,VALID,-0.0679233,VALID,19.5333,VALID,155,VALID,0.0339753,
2007-04-12, 03:28:00,VALID,915.699,VALID,0,VALID,100,VALID,-0.0169808,VALID,19.5269,VALID,155,VALID,0.173828,
2007-04-12, 03:29:00,VALID,915.682,VALID,0,VALID,100,VALID,-0.0169808,VALID,19.5261,VALID,151,VALID,0.487533,
2007-04-12, 03:30:00,VALID,915.662,VALID,0,VALID,100,VALID,0.0169808,VALID,19.5264,VALID,151,VALID,0.20694,
2007-04-12, 03:31:00,VALID,915.663,VALID,0,VALID,100,VALID,0.0169808,VALID,19.5299,VALID,151,VALID,0.000744048,
2007-04-12, 03:32:00,VALID,915.634,VALID,0,VALID,100,VALID,0,VALID,19.5328,VALID,151,VALID,0.0102431,
2007-04-12, 03:33:00,VALID,915.627,VALID,0,VALID,100,VALID,0,VALID,19.5266,VALID,151,VALID,0,
2007-04-12, 03:34:00,VALID,915.631,VALID,0,VALID,100,VALID,0.0169808,VALID,19.5066,VALID,151,VALID,0,
2007-04-12, 03:35:00,VALID,915.624,VALID,0,VALID,100,VALID,0,VALID,19.5007,VALID,151,VALID,0,
2007-04-12, 03:36:00,VALID,915.614,VALID,0,VALID,100,VALID,0.0339617,VALID,19.4582,VALID,150,VALID,0,
2007-04-12, 03:37:00,VALID,915.611,VALID,0,VALID,100,VALID,0,VALID,19.4285,VALID,151,VALID,0,
2007-04-12, 03:38:00,VALID,915.602,VALID,0,VALID,100,VALID,0,VALID,19.429,VALID,151,VALID,0,
2007-04-12, 03:39:00,VALID,915.598,VALID,0,VALID,100,VALID,-0.0169808,VALID,19.4193,VALID,151,VALID,0,